Location: Newark
(40.4667°N, 5.6000°W)
Time: 03:49:15
(UTC+00:00)

Vanguard 3 - Visible Passes

Search period start: 22 January 2021 00:00
Search period end: 01 February 2021 00:00
Orbit: 508 x 3262 km, 33.3° (Epoch: 21 January)

Date Brightness Start Highest point End Pass type
(mag) Time Alt. Az. Time Alt. Az. Time Alt. Az.
22 Jan 8.8 04:30:14 43° S 04:31:18 45° SSE 04:42:51 10° E visible
22 Jan 9.4 06:34:48 10° WSW 06:44:07 62° S 07:00:18 10° ESE visible
23 Jan 9.9 03:20:26 23° ESE 03:20:26 23° ESE 03:25:27 10° E visible
23 Jan 8.9 05:24:59 33° SW 05:29:03 57° S 05:42:39 10° E visible
24 Jan 8.8 04:15:09 45° SSE 04:15:09 45° SSE 04:25:15 10° E visible
24 Jan 9.3 06:19:42 15° WSW 06:27:15 60° S 06:42:19 10° ESE visible
25 Jan 10.1 03:05:17 18° ESE 03:05:17 18° ESE 03:08:11 10° E visible
25 Jan 8.5 05:09:51 43° SW 05:12:23 56° S 05:24:52 10° E visible
26 Jan 9.0 03:59:58 39° SE 03:59:58 39° SE 04:07:44 10° E visible
26 Jan 9.1 06:04:32 21° WSW 06:10:29 56° S 06:24:22 10° ESE visible
27 Jan 10.4 02:50:05 13° E 02:50:05 13° E 02:51:03 10° E visible
27 Jan 8.3 04:54:38 50° SSW 04:55:49 54° S 05:07:10 10° ESE visible
27 Jan 9.6 07:00:10 10° W 07:08:48 48° SSW 07:23:23 10° SE visible
28 Jan 9.3 03:44:46 31° ESE 03:44:46 31° ESE 03:50:21 10° E visible
28 Jan 8.9 05:49:19 26° WSW 05:53:49 52° S 06:06:26 10° ESE visible
29 Jan 8.3 04:39:26 51° S 04:39:26 51° S 04:49:33 10° ESE visible
29 Jan 9.5 06:44:13 10° W 06:52:01 42° SSW 07:05:09 10° SE visible
30 Jan 9.7 03:29:33 23° ESE 03:29:33 23° ESE 03:33:04 10° E visible
30 Jan 8.6 05:34:06 32° WSW 05:37:15 47° S 05:48:33 10° ESE visible
31 Jan 8.6 04:24:15 43° SSE 04:24:15 43° SSE 04:32:01 10° ESE visible
31 Jan 9.4 06:28:48 12° WSW 06:35:22 36° SSW 06:46:53 10° SE visible
